1500843601.11,46789,21.31,74228.3,5.03,-18.93,-18.11,0,*75
1500843602.33,46790,21.31,74226.0,5.01,-19.03,-18.25,0,*70
1500843603.54,46791,21.31,74224.3,5.01,-19.07,-18.25,0,*75
1500843604.79,46792,21.31,74224.3,5.01,-18.89,-18.11,0,*76
1500843606.01,46793,21.31,74226.0,5.01,-19.03,-18.17,0,*72
1500843607.24,46794,21.31,74224.3,5.03,-18.89,-18.11,0,*72
1500843608.49,46795,21.31,74226.8,5.01,-18.93,-18.17,0,*7C
1500843609.74,46796,21.31,74228.5,5.01,-18.89,-17.87,0,*72
1500843610.97,46797,21.31,74226.3,5.01,-18.73,-17.83,0,*72
1500843612.17,46798,21.31,74228.0,5.03,-18.79,-17.87,0,*71
1500843613.4,46799,21.31,74226.3,5.03,-18.73,-17.97,0,*7B
1500843614.63,46800,21.31,74226.0,5.03,-18.89,-18.11,0,*70
1500843615.84,46801,21.31,74224.8,5.03,-18.79,-17.87,0,*7E
1500843617.03,46802,21.31,74226.3,5.03,-19.07,-18.25,0,*72
1500843618.23,46803,21.31,74226.8,5.03,-19.07,-18.17,0,*72
1500843619.42,46804,21.31,74228.8,5.03,-19.07,-18.25,0,*74
1500843620.64,46805,21.31,74224.5,5.01,-19.07,-18.17,0,*76
1500843621.86,46806,21.31,74228.3,5.01,-19.07,-18.25,0,*74
1500843623.08,46807,21.31,74230.5,5.01,-19.07,-18.17,0,*74
1500843624.28,46808,21.31,74228.3,5.03,-19.07,-18.25,0,*78
1500843625.49,46809,21.31,74228.3,5.01,-19.03,-18.17,0,*7E
1500843626.75,46810,21.31,74230.3,5.03,-18.93,-18.01,0,*7B
1500843627.94,46811,21.31,74230.5,5.03,-19.07,-18.25,0,*70
1500843629.14,46812,21.31,74230.3,5.03,-19.03,-18.25,0,*77
1500843630.36,46813,21.31,74228.8,5.01,-19.03,-18.11,0,*73
1500843631.56,46814,21.31,74228.5,5.03,-19.03,-18.17,0,*70
1500843632.76,46815,21.31,74228.5,5.03,-19.07,-18.17,0,*75
1500843633.95,46816,21.31,74228.8,5.03,-19.07,-18.25,0,*77
1500843635.16,46817,21.31,74228.3,5.03,-19.07,-18.11,0,*71
1500843636.35,46818,21.31,74228.8,5.03,-19.03,-18.25,0,*7D
1500843637.55,46819,21.31,74230.8,5.03,-19.03,-18.17,0,*7D
1500843638.82,46820,21.31,74230.0,5.01,-18.93,-18.01,0,*7A
1500843640.07,46821,21.31,74230.3,5.01,-19.03,-18.01,0,*73
1500843641.32,46822,21.31,74232.3,5.01,-18.89,-17.87,0,*72
1500843642.57,46823,21.31,74232.0,5.01,-18.89,-17.83,0,*77
1500843643.84,46824,21.31,74232.3,5.01,-18.89,-18.01,0,*75
1500843645.05,46825,21.31,74228.3,5.03,-19.07,-18.11,0,*70
1500843646.27,46826,21.31,74228.8,5.01,-19.07,-18.17,0,*77
1500843647.5,46827,21.31,74232.3,5.01,-19.07,-18.11,0,*70
1500843648.72,46828,21.31,74228.8,5.01,-19.07,-18.17,0,*79
1500843649.93,46829,21.31,74228.8,5.01,-19.07,-18.25,0,*79
1500843651.15,46830,21.31,74228.8,5.01,-19.07,-18.25,0,*71
1500843652.37,46831,21.31,74230.5,5.01,-19.07,-18.25,0,*70
1500843653.6,46832,21.31,74228.0,5.03,-19.07,-18.01,0,*77
1500843654.82,46833,21.31,74228.5,5.03,-19.07,-18.01,0,*76
1500843656.08,46834,21.31,74226.8,5.01,-18.89,-17.87,0,*75
1500843657.28,46835,21.31,74228.0,5.03,-18.79,-17.83,0,*7D
1500843658.51,46836,21.31,74224.0,5.01,-19.03,-18.11,0,*74
1500843659.7,46837,21.31,74222.5,5.03,-19.07,-18.25,0,*74
1500843660.93,46838,21.31,74222.8,5.01,-19.07,-18.11,0,*7E
1500843662.16,46839,21.31,74226.3,5.01,-19.17,-18.17,0,*78
1500843663.38,46840,21.31,74220.0,5.01,-18.73,-17.73,0,*78
1500843664.63,46841,21.31,74218.5,5.01,-18.65,-17.63,0,*7F
1500843665.86,46842,21.31,74220.3,5.01,-18.73,-17.83,0,*75
1500843667.06,46843,21.31,74224.8,5.03,-18.73,-17.83,0,*76
1500843668.27,46844,21.31,74226.0,5.03,-18.73,-17.83,0,*71
1500843669.52,46845,21.31,74226.0,5.01,-18.55,-17.69,0,*72
1500843670.71,46846,21.31,74226.3,5.03,-18.73,-17.73,0,*7C
1500843671.94,46847,21.31,74228.0,5.07,-19.03,-18.01,0,*75
1500843673.16,46848,21.31,74226.3,5.01,-19.07,-18.17,0,*7F
1500843674.38,46849,21.31,74224.0,5.01,-19.17,-18.25,0,*7E
1500843675.64,46850,21.31,74228.0,5.03,-18.93,-17.97,0,*7F
1500843676.87,46851,21.31,74226.0,5.01,-18.79,-17.87,0,*79
1500843678.14,46852,21.31,74226.0,5.01,-18.89,-17.97,0,*74
1500843679.35,46853,21.31,74226.8,5.03,-18.79,-17.87,0,*79
1500843680.63,46854,21.31,74230.3,5.01,-18.93,-18.01,0,*79
1500843681.91,46855,21.31,74230.3,5.01,-19.23,-18.31,0,*71
1500843683.14,46856,21.31,74228.8,5.03,-19.31,-18.45,0,*70
1500843684.4,46857,21.31,74228.8,5.01,-19.17,-18.31,0,*74
1500843685.66,46858,21.31,74232.0,5.01,-19.17,-18.31,0,*7B
1500843686.94,46859,21.31,74230.5,5.01,-19.23,-18.31,0,*7D
1500843688.19,46860,21.31,74228.8,5.01,-19.31,-18.41,0,*73
1500843689.4,46861,21.31,74228.5,4.99,-19.07,-18.07,0,*75
1500843690.6,46862,21.31,74228.8,4.99,-18.79,-17.87,0,*79
1500843691.83,46863,21.31,74226.8,4.99,-18.79,-17.79,0,*79
1500843693.08,46864,21.31,74224.3,5.01,-18.59,-17.69,0,*7D
1500843694.31,46865,21.31,74230.0,5.01,-18.79,-17.73,0,*75
1500843695.55,46866,21.31,74224.3,5.01,-18.55,-17.73,0,*78
1500843696.83,46867,21.31,74228.8,5.01,-18.31,-17.25,0,*78
1500843698.08,46868,21.31,74224.5,5.01,-18.25,-17.21,0,*76
1500843699.36,46869,21.31,74222.0,5.01,-18.01,-17.07,0,*75
1500843700.56,46870,21.31,74222.0,5.03,-18.65,-17.73,0,*7E
1500843701.78,46871,21.25,74216.8,5.03,-18.65,-17.63,0,*7E
1500843703.03,46872,21.31,74222.8,5.01,-18.89,-17.83,0,*73
1500843704.26,46873,21.31,74220.3,5.01,-18.79,-17.83,0,*7D
1500843705.47,46874,21.31,74224.5,5.03,-18.79,-17.83,0,*78
1500843706.73,46875,21.31,74222.0,5.01,-18.93,-17.83,0,*7F
1500843707.93,46876,21.31,74226.8,5.03,-18.79,-17.73,0,*75
1500843709.18,46877,21.31,74222.5,5.01,-19.03,-17.97,0,*70
1500843710.43,46878,21.31,74222.8,5.01,-19.07,-18.01,0,*7B
1500843711.68,46879,21.31,74226.8,5.01,-19.07,-17.97,0,*7A
1500843712.91,46880,21.31,74226.3,5.01,-19.07,-18.11,0,*7D
1500843714.14,46881,21.31,74222.8,5.01,-19.07,-18.11,0,*7C
1500843715.36,46882,21.31,74220.0,5.01,-19.17,-18.17,0,*78
1500843716.6,46883,21.31,74226.3,5.01,-19.17,-18.11,0,*7F
1500843717.83,46884,21.31,74224.5,4.99,-18.99,-18.01,0,*7E
1500843719.08,46885,21.31,74226.8,4.99,-18.93,-17.79,0,*75
1500843720.32,46886,21.31,74228.0,4.99,-18.93,-17.87,0,*77
1500843721.55,46887,21.31,74230.0,4.99,-18.83,-17.79,0,*76
1500843722.78,46888,21.31,74228.5,5.01,-19.07,-18.11,0,*75
1500843724.03,46889,21.31,74230.0,5.01,-19.23,-18.17,0,*74
1500843725.26,46890,21.31,74230.3,4.99,-19.23,-18.17,0,*7C
1500843726.51,46891,21.31,74228.3,5.01,-19.07,-18.01,0,*7C
1500843727.74,46892,21.31,74224.3,4.99,-19.13,-18.01,0,*7A
1500843728.99,46893,21.31,74228.0,4.99,-18.59,-17.55,0,*7A
1500843730.22,46894,21.31,74224.8,5.01,-18.45,-17.49,0,*7D
1500843731.5,46895,21.31,74220.5,5.01,-18.93,-17.97,0,*74
1500843732.73,46896,21.31,74222.5,5.01,-19.07,-18.11,0,*7A
1500843733.97,46897,21.31,74226.5,5.01,-19.03,-18.01,0,*7E
1500843735.22,46898,21.31,74224.3,5.01,-18.89,-17.73,0,*78
1500843736.42,46899,21.31,74226.8,4.99,-18.79,-17.73,0,*76
1500843737.65,46900,21.31,74228.0,4.99,-18.65,-17.59,0,*72
1500843738.9,46901,21.31,74234.3,5.01,-18.65,-17.55,0,*7F
1500843740.13,46902,21.31,74232.8,5.01,-19.03,-17.83,0,*76
1500843741.38,46903,21.31,74228.3,5.01,-19.07,-17.97,0,*76
1500843742.59,46904,21.31,74230.3,5.03,-19.07,-17.83,0,*76
1500843743.84,46905,21.31,74228.0,5.01,-18.93,-17.87,0,*7D
1500843745.09,46906,21.31,74230.3,5.01,-18.93,-17.73,0,*75
1500843746.34,46907,21.31,74230.0,5.01,-18.93,-17.73,0,*74
1500843747.57,46908,21.31,74230.0,5.01,-19.07,-17.87,0,*7C
1500843748.78,46909,21.31,74228.0,5.03,-19.03,-17.87,0,*7B
1500843750.0,46910,21.31,74228.0,5.01,-18.73,-17.49,0,*75
1500843751.23,46911,21.31,74228.8,5.03,-18.93,-17.69,0,*7A
1500843752.47,46912,21.31,74228.5,5.01,-18.89,-17.69,0,*70
1500843753.75,46913,21.25,74224.3,5.01,-18.55,-17.41,0,*7A
1500843754.97,46914,21.31,74226.8,5.01,-18.73,-17.69,0,*73
1500843756.2,46915,21.31,74224.5,5.01,-18.73,-17.69,0,*72
1500843757.47,46916,21.31,74226.3,5.01,-18.59,-17.55,0,*76
1500843758.69,46917,21.31,74226.0,5.09,-18.83,-18.07,0,*70
1500843759.92,46918,21.31,74222.3,5.01,-18.65,-17.49,0,*7A
1500843761.14,46919,21.31,74222.0,5.03,-18.79,-17.63,0,*7C
1500843762.37,46920,21.31,74224.5,5.07,-18.73,-17.63,0,*78
1500843763.61,46921,21.31,74226.0,5.07,-18.89,-17.63,0,*7C
1500843764.84,46922,21.31,74226.8,5.03,-18.93,-17.73,0,*71
1500843766.04,46923,21.31,74226.3,5.03,-18.79,-17.69,0,*7F
1500843767.27,46924,21.31,74222.8,5.07,-18.69,-17.63,0,*77
1500843768.49,46925,21.31,74222.8,5.07,-18.83,-17.63,0,*72
1500843769.72,46926,21.25,74220.8,5.03,-19.07,-17.97,0,*73
1500843770.95,46927,21.31,74220.8,5.03,-19.31,-18.25,0,*71
1500843772.15,46928,21.31,74222.8,5.03,-19.37,-18.17,0,*79
1500843773.38,46929,21.31,74224.3,5.03,-19.31,-18.17,0,*7E
1500843774.58,46930,21.31,74222.0,5.03,-19.37,-18.25,0,*71
1500843775.77,46931,21.31,74226.3,5.03,-19.47,-18.41,0,*75
1500843777.0,46932,21.31,74220.3,5.03,-19.47,-18.31,0,*71
1500843778.2,46933,21.31,74224.8,5.03,-19.47,-18.25,0,*75
1500843779.43,46934,21.31,74224.0,5.03,-19.51,-18.31,0,*70
1500843780.66,46935,21.31,74226.3,5.03,-19.57,-18.45,0,*74
1500843781.95,46936,21.31,74226.3,5.01,-19.57,-18.31,0,*76
1500843783.18,46937,21.31,74224.5,5.03,-19.17,-18.01,0,*72
1500843784.44,46938,21.31,74226.8,5.01,-19.17,-17.97,0,*7F
1500843785.66,46939,21.31,74224.8,5.03,-18.73,-17.63,0,*74
1500843786.89,46940,21.31,74222.3,5.03,-18.73,-17.55,0,*7F
1500843788.16,46941,21.31,74226.8,5.01,-18.59,-17.41,0,*71
1500843789.41,46942,21.31,74224.5,5.01,-18.93,-17.69,0,*7E
1500843790.64,46943,21.31,74226.8,5.03,-19.23,-18.11,0,*77
1500843791.88,46944,21.31,74224.3,5.03,-19.51,-18.31,0,*77
1500843793.1,46945,21.31,74224.3,5.01,-19.37,-18.17,0,*70
1500843794.31,46946,21.31,74220.8,5.03,-19.17,-17.87,0,*75
1500843795.52,46947,21.31,74226.5,5.07,-18.99,-17.69,0,*77
1500843796.74,46948,21.31,74224.0,5.03,-18.93,-17.73,0,*7D
1500843797.99,46949,21.31,74224.0,5.03,-18.89,-17.55,0,*73
1500843799.27,46950,21.31,74220.0,5.01,-19.23,-18.01,0,*76
1500843800.49,46951,21.31,74220.5,5.01,-19.07,-17.73,0,*7B
1500843801.74,46952,21.31,74220.5,5.01,-18.93,-17.69,0,*7F
1500843802.97,46953,21.31,74220.3,5.03,-18.69,-17.45,0,*77
1500843804.17,46954,21.31,74226.0,5.03,-18.73,-17.49,0,*77
1500843805.4,46955,21.31,74224.3,5.07,-18.83,-17.63,0,*75
1500843806.63,46956,21.31,74220.8,5.03,-18.93,-17.69,0,*79
1500843807.84,46957,21.31,74222.0,5.03,-19.17,-17.83,0,*71
1500843809.07,46958,21.25,74220.5,5.11,-19.23,-18.07,0,*79
1500843810.31,46959,21.25,74220.3,5.07,-18.89,-17.79,0,*78
1500843811.54,46960,21.25,74220.8,5.07,-18.73,-17.59,0,*75
1500843812.76,46961,21.31,74220.5,5.07,-18.89,-17.69,0,*72
1500843813.99,46962,21.31,74220.3,5.07,-19.03,-17.79,0,*73
1500843815.21,46963,21.31,74222.5,5.07,-18.73,-17.45,0,*7B
1500843816.41,46964,21.31,74222.3,5.07,-18.69,-17.49,0,*7B
1500843817.64,46965,21.31,74226.8,5.11,-18.69,-17.55,0,*70
1500843818.87,46966,21.31,74224.8,5.07,-19.13,-17.79,0,*76
1500843820.13,46967,21.31,74224.3,5.09,-19.17,-17.97,0,*7D
1500843821.37,46968,21.31,74224.8,5.07,-18.89,-17.63,0,*71
1500843822.64,46969,21.31,74222.8,5.09,-18.89,-17.59,0,*77
1500843823.89,46970,21.31,74220.0,5.09,-19.03,-17.79,0,*7E
1500843825.14,46971,21.31,74226.3,5.09,-18.99,-17.59,0,*7F
1500843826.34,46972,21.31,74220.5,5.07,-19.03,-17.69,0,*73
1500843827.59,46973,21.25,74220.8,5.09,-19.17,-17.93,0,*7C
1500843828.82,46974,21.25,74218.0,5.07,-19.13,-17.93,0,*71
1500843830.08,46975,21.31,74218.5,5.09,-19.31,-18.07,0,*7C
1500843831.32,46976,21.31,74218.0,5.09,-19.13,-17.83,0,*7C
1500843832.53,46977,21.25,74218.3,5.07,-19.13,-17.83,0,*73
1500843833.76,46978,21.31,74220.8,5.09,-19.03,-17.83,0,*73
1500843834.99,46979,21.31,74218.0,5.09,-19.13,-17.83,0,*73
1500843836.22,46980,21.31,74216.0,5.07,-19.17,-17.93,0,*7E
1500843837.47,46981,21.31,74214.3,5.09,-18.69,-17.45,0,*72
1500843838.7,46982,21.31,74216.0,5.07,-18.59,-17.35,0,*7B
1500843839.95,46983,21.31,74212.5,5.09,-18.41,-17.17,0,*7D
1500843841.23,46984,21.25,74208.8,5.09,-17.97,-16.65,0,*7A
1500843842.45,46985,21.31,74218.3,5.09,-18.25,-16.93,0,*74
1500843843.64,46986,21.25,74216.3,5.11,-18.65,-17.31,0,*73
1500843844.87,46987,21.31,74218.5,5.11,-18.01,-16.59,0,*7F
1500843846.14,46988,21.31,74212.3,5.13,-17.59,-16.31,0,*7E
1500843847.41,46989,21.31,74208.3,5.13,-17.55,-16.09,0,*78
1500843848.69,46990,21.31,74214.0,5.13,-17.21,-15.81,0,*70
1500843849.91,46991,21.31,74216.3,5.17,-17.69,-16.41,0,*76
1500843851.11,46992,21.31,74220.0,5.15,-18.11,-16.79,0,*7C
1500843852.36,46993,21.31,74218.5,5.17,-17.93,-16.59,0,*78
1500843853.64,46994,21.25,74212.8,5.17,-17.55,-16.13,0,*7B
1500843854.86,46995,21.31,74214.0,5.17,-18.21,-16.93,0,*7E
1500843856.11,46996,21.25,74214.3,5.17,-18.45,-17.07,0,*73
1500843857.34,46997,21.31,74218.0,5.17,-18.11,-16.75,0,*77
1500843858.59,46998,21.31,74218.8,5.19,-17.97,-16.65,0,*76
1500843859.84,46999,21.31,74218.5,5.21,-17.93,-16.55,0,*7B
1500843861.08,47000,21.31,74218.5,5.21,-17.79,-16.37,0,*73
1500843862.32,47001,21.31,74218.3,5.21,-17.79,-16.41,0,*73
1500843863.57,47002,21.31,74218.3,5.21,-18.01,-16.59,0,*79
1500843864.81,47003,21.25,74214.3,5.21,-17.93,-16.55,0,*70
1500843866.04,47004,21.31,74218.0,5.23,-18.01,-16.59,0,*7D
1500843867.27,47005,21.31,74218.5,5.25,-18.11,-16.69,0,*78
1500843868.49,47006,21.31,74218.8,5.23,-18.35,-16.97,0,*7A
1500843869.72,47007,21.31,74220.8,5.25,-18.41,-17.03,0,*72
1500843870.94,47008,21.25,74212.5,5.23,-18.01,-16.59,0,*71
1500843872.16,47009,21.31,74214.0,5.23,-18.01,-16.45,0,*7D
1500843873.39,47010,21.31,74212.5,5.25,-17.97,-16.55,0,*72
1500843874.62,47011,21.25,74206.5,5.25,-17.83,-16.31,0,*74
1500843875.86,47012,21.31,74212.3,5.29,-17.93,-16.51,0,*7C
1500843877.09,47013,21.31,74214.0,5.29,-18.31,-16.89,0,*7F
1500843878.34,47014,21.25,74214.5,5.29,-18.31,-17.03,0,*7B
1500843879.59,47015,21.31,74214.3,5.31,-18.07,-16.65,0,*77
1500843880.81,47016,21.25,74210.0,5.29,-17.69,-16.27,0,*7C
1500843882.04,47017,21.31,74206.5,5.31,-17.83,-16.59,0,*79
1500843883.27,47018,21.25,74212.5,5.31,-18.07,-16.59,0,*75
1500843884.53,47019,21.31,74216.8,5.31,-18.45,-17.07,0,*78
1500843885.73,47020,21.25,74216.3,5.29,-18.73,-17.35,0,*7F
1500843886.99,47021,21.25,74214.3,5.31,-17.97,-16.59,0,*79
1500843888.24,47022,21.31,74218.5,5.33,-18.01,-16.69,0,*7B
1500843889.46,47023,21.25,74216.8,5.33,-18.49,-17.03,0,*7B
1500843890.66,47024,21.31,74222.0,5.33,-18.21,-16.97,0,*7E
1500843891.87,47025,21.25,74214.3,5.33,-17.73,-16.31,0,*7B
1500843893.13,47026,21.25,74212.0,5.35,-17.93,-16.59,0,*7E
1500843894.38,47027,21.25,74212.0,5.35,-17.79,-16.41,0,*72
1500843895.63,47028,21.31,74212.5,5.35,-17.79,-16.41,0,*7D
1500843896.9,47029,21.25,74212.8,5.35,-17.79,-16.31,0,*7B
1500843898.1,47030,21.25,74214.3,5.37,-17.87,-16.55,0,*72
1500843899.3,47031,21.25,74216.5,5.41,-18.07,-16.59,0,*79
1500843900.51,47032,21.31,74218.0,5.41,-18.11,-16.75,0,*73
1500843901.71,47033,21.31,74222.5,5.37,-18.21,-16.79,0,*7C
1500843902.94,47034,21.31,74222.5,5.41,-18.45,-17.07,0,*70
1500843904.16,47035,21.25,74216.8,5.37,-18.73,-17.25,0,*75
1500843905.4,47036,21.31,74216.0,5.41,-18.55,-17.21,0,*77
1500843906.6,47037,21.31,74216.8,5.41,-18.25,-16.93,0,*79
1500843907.79,47038,21.25,74220.3,5.37,-18.79,-17.31,0,*77
1500843909.02,47039,21.31,74218.0,5.37,-18.65,-17.25,0,*7E
1500843910.26,47040,21.31,74218.3,5.41,-18.55,-17.17,0,*73
1500843911.48,47041,21.25,74216.0,5.37,-18.65,-17.21,0,*75
1500843912.69,47042,21.25,74220.8,5.41,-18.69,-17.35,0,*7E
1500843913.94,47043,21.25,74218.3,5.37,-18.89,-17.45,0,*77
1500843915.15,47044,21.25,74216.5,5.37,-19.13,-17.69,0,*7C
1500843916.38,47045,21.25,74216.8,5.37,-19.23,-17.83,0,*7A
1500843917.63,47046,21.25,74212.8,5.37,-18.93,-17.59,0,*74
1500843918.84,47047,21.25,74218.0,5.41,-19.13,-17.73,0,*75
1500843920.06,47048,21.31,74222.3,5.41,-18.99,-17.55,0,*7D
1500843921.31,47049,21.25,74218.5,5.37,-18.93,-17.45,0,*76
1500843922.55,47050,21.31,74220.0,5.37,-19.27,-17.87,0,*7E
1500843923.76,47051,21.25,74216.8,5.37,-19.13,-17.73,0,*73
1500843924.99,47052,21.25,74218.3,5.37,-19.41,-17.87,0,*7C
1500843926.23,47053,21.31,74220.5,5.37,-19.27,-17.83,0,*79
1500843927.45,47054,21.25,74222.5,5.37,-19.03,-17.55,0,*73
1500843928.68,47055,21.25,74224.0,5.37,-18.79,-17.41,0,*7B
1500843929.9,47056,21.25,74222.5,5.37,-18.73,-17.25,0,*70
1500843931.12,47057,21.25,74222.5,5.37,-18.73,-17.21,0,*75
1500843932.33,47058,21.25,74218.5,5.37,-18.21,-16.83,0,*74
1500843933.52,47059,21.31,74222.5,5.37,-18.45,-16.93,0,*76
1500843934.77,47060,21.25,74222.5,5.41,-18.55,-17.07,0,*70
1500843935.97,47061,21.25,74220.5,5.41,-18.45,-16.93,0,*7C
1500843937.21,47062,21.25,74216.0,5.41,-18.59,-17.17,0,*7F
1500843938.44,47063,21.25,74218.5,5.37,-18.31,-16.83,0,*7D
1500843939.67,47064,21.25,74216.3,5.41,-18.45,-17.03,0,*71
1500843940.91,47065,21.25,74218.5,5.41,-18.59,-17.17,0,*78
1500843942.13,47066,21.25,74214.5,5.41,-18.73,-17.25,0,*72
1500843943.37,47067,21.25,74212.8,5.41,-18.89,-17.41,0,*74
1500843944.59,47068,21.25,74212.3,5.41,-18.73,-17.25,0,*7C
1500843945.79,47069,21.25,74214.0,5.41,-18.17,-16.79,0,*77
1500843946.98,47070,21.25,74212.8,5.41,-18.45,-16.93,0,*7C
1500843948.18,47071,21.25,74216.5,5.41,-18.41,-16.93,0,*79
1500843949.43,47072,21.25,74212.0,5.41,-18.55,-17.03,0,*77
1500843950.67,47073,21.31,74218.3,5.41,-18.59,-17.17,0,*7F
1500843951.92,47074,21.25,74212.3,5.41,-18.59,-17.21,0,*7D
1500843953.16,47075,21.25,74214.8,5.41,-18.59,-17.21,0,*7C
1500843954.41,47076,21.25,74210.8,5.43,-18.65,-17.11,0,*71
1500843955.66,47077,21.25,74210.5,5.41,-18.59,-17.21,0,*7E
1500843956.91,47078,21.25,74214.3,5.43,-18.79,-17.21,0,*71
1500843958.13,47079,21.25,74212.0,5.43,-18.69,-17.31,0,*70
1500843959.35,47080,21.25,74212.5,5.41,-18.73,-17.25,0,*7A
1500843960.55,47081,21.25,74216.3,5.41,-18.83,-17.35,0,*75
1500843961.8,47082,21.25,74220.3,5.43,-18.83,-17.45,0,*73
1500843963.06,47083,21.25,74218.8,5.43,-18.99,-17.59,0,*74
1500843964.29,47084,21.31,74222.3,5.41,-19.31,-17.83,0,*75
1500843965.51,47085,21.25,74216.8,5.41,-19.07,-17.63,0,*7F
1500843966.73,47086,21.25,74216.0,5.41,-18.69,-17.25,0,*77
1500843967.96,47087,21.25,74218.5,5.41,-18.79,-17.21,0,*73
1500843969.21,47088,21.25,74216.8,5.43,-18.65,-17.17,0,*76
1500843970.46,47089,21.25,74218.5,5.43,-18.83,-17.45,0,*78
1500843971.68,47090,21.25,74218.8,5.43,-18.99,-17.49,0,*77
1500843972.9,47091,21.25,74218.8,5.41,-19.07,-17.79,0,*71
1500843974.13,47092,21.25,74220.0,5.41,-19.23,-17.83,0,*71
1500843975.35,47093,21.25,74218.0,5.41,-19.03,-17.55,0,*79
1500843976.61,47094,21.25,74220.0,5.43,-18.93,-17.35,0,*72
1500843977.86,47095,21.25,74216.3,5.43,-18.69,-17.21,0,*73
1500843979.11,47096,21.25,74216.0,5.43,-18.79,-17.21,0,*71
1500843980.37,47097,21.25,74222.3,5.43,-18.69,-17.21,0,*71
1500843981.57,47098,21.25,74220.5,5.41,-18.41,-16.97,0,*7A
1500843982.84,47099,21.25,74220.3,5.43,-18.55,-17.03,0,*70
1500843984.11,47100,21.25,74216.5,5.43,-18.55,-17.17,0,*74
1500843985.33,47101,21.25,74216.0,5.43,-18.41,-16.89,0,*76
1500843986.58,47102,21.25,74220.8,5.43,-18.01,-16.55,0,*70
1500843987.8,47103,21.25,74220.3,5.45,-17.73,-16.23,0,*7C
1500843989.0,47104,21.25,74220.8,5.45,-17.87,-16.41,0,*74
1500843990.19,47105,21.25,74222.3,5.49,-17.87,-16.37,0,*78
1500843991.39,47106,21.25,74220.5,5.49,-18.21,-16.83,0,*77
1500843992.61,47107,21.25,74220.8,5.45,-18.45,-17.11,0,*72
1500843993.85,47108,21.25,74222.0,5.49,-18.59,-17.17,0,*7A
1500843995.1,47109,21.25,74218.5,5.49,-18.93,-17.45,0,*7A
1500843996.33,47110,21.25,74218.8,5.45,-19.23,-17.87,0,*7A
1500843997.58,47111,21.25,74218.5,5.45,-18.93,-17.45,0,*7F
1500843998.83,47112,21.25,74210.0,5.45,-18.59,-17.11,0,*7B
1500844000.05,47113,21.25,74212.0,5.45,-18.35,-16.79,0,*7F
1500844001.27,47114,21.25,74212.5,5.49,-18.31,-16.93,0,*74
1500844002.52,47115,21.25,74210.8,5.51,-18.31,-16.79,0,*78
1500844003.74,47116,21.25,74214.3,5.51,-18.45,-16.93,0,*7C
1500844004.97,47117,21.25,74212.8,5.49,-18.45,-17.07,0,*78
1500844006.22,47118,21.25,74214.3,5.51,-18.01,-16.59,0,*74
1500844007.47,47119,21.25,74212.5,5.51,-18.11,-16.65,0,*7B
1500844008.72,47120,21.25,74210.8,5.51,-18.01,-16.59,0,*7F
1500844009.97,47121,21.25,74212.3,5.51,-17.93,-16.37,0,*72
1500844011.2,47122,21.25,74208.3,5.53,-17.63,-16.27,0,*7D
1500844012.42,47123,21.25,74208.5,5.53,-17.73,-16.31,0,*7A
1500844013.64,47124,21.25,74204.3,5.53,-17.87,-16.27,0,*71
1500844014.84,47125,21.25,74208.5,5.59,-17.87,-16.41,0,*7A
1500844016.06,47126,21.25,74210.3,5.59,-17.93,-16.41,0,*7C
1500844017.26,47127,21.25,74212.5,5.59,-17.87,-16.41,0,*78
1500844018.46,47128,21.25,74216.0,5.59,-17.83,-16.41,0,*73
1500844019.66,47129,21.25,74210.8,5.59,-17.83,-16.37,0,*73
1500844020.86,47130,21.25,74212.3,5.59,-17.83,-16.37,0,*7B
1500844022.1,47131,21.25,74214.3,5.61,-17.69,-16.23,0,*70
1500844023.32,47132,21.31,74220.3,5.63,-17.83,-16.31,0,*76
1500844024.59,47133,21.25,74210.0,5.61,-17.63,-16.17,0,*7F
1500844025.81,47134,21.25,74212.5,5.63,-18.31,-16.93,0,*7E
1500844027.04,47135,21.25,74216.3,5.63,-18.31,-16.75,0,*77
1500844028.32,47136,21.25,74212.0,5.61,-18.55,-17.07,0,*70
1500844029.54,47137,21.25,74218.5,5.63,-18.79,-17.41,0,*7F
1500844030.8,47138,21.25,74218.3,5.61,-18.89,-17.41,0,*7D
1500844032.02,47139,21.25,74218.3,5.63,-18.31,-16.93,0,*73
1500844033.24,47140,21.25,74224.0,5.63,-18.55,-16.97,0,*7B
1500844034.49,47141,21.25,74218.0,5.61,-18.45,-17.07,0,*71
1500844035.74,47142,21.25,74218.5,5.61,-18.31,-16.89,0,*76
1500844036.98,47143,21.25,74212.0,5.63,-18.01,-16.51,0,*73
1500844038.18,47144,21.25,74216.5,5.63,-18.17,-16.75,0,*75
1500844039.4,47145,21.25,74218.5,5.61,-18.25,-16.79,0,*7B
1500844040.6,47146,21.25,74212.0,5.63,-18.41,-16.97,0,*78
1500844041.79,47147,21.25,74220.5,5.63,-18.45,-16.97,0,*7D
1500844043.04,47148,21.25,74216.8,5.63,-18.59,-17.07,0,*77
1500844044.26,47149,21.25,74218.0,5.67,-18.49,-17.03,0,*77
1500844045.49,47150,21.25,74220.5,5.67,-18.41,-17.03,0,*77
1500844046.68,47151,21.25,74218.0,5.67,-18.25,-16.83,0,*7D
1500844047.91,47152,21.25,74216.8,5.63,-18.01,-16.59,0,*7B
1500844049.11,47153,21.25,74216.3,5.63,-18.25,-16.79,0,*7E
1500844050.3,47154,21.25,74216.8,5.63,-18.25,-16.79,0,*79
1500844051.52,47155,21.25,74222.5,5.69,-18.21,-16.83,0,*73
1500844052.74,47156,21.25,74218.8,5.67,-18.35,-16.93,0,*7A
1500844053.96,47157,21.25,74216.0,5.69,-18.17,-16.55,0,*7F
1500844055.2,47158,21.25,74212.3,5.69,-17.93,-16.55,0,*73
1500844056.44,47159,21.25,74218.8,5.69,-18.21,-16.65,0,*77
1500844057.68,47160,21.25,74218.5,5.69,-17.87,-16.51,0,*79
1500844058.88,47161,21.25,74214.5,5.67,-18.07,-16.75,0,*77
1500844060.13,47162,21.25,74212.3,5.69,-18.17,-16.65,0,*7A
1500844061.34,47163,21.25,74214.3,5.69,-18.21,-16.79,0,*73
1500844062.56,47164,21.25,74216.5,5.71,-17.93,-16.55,0,*75
1500844063.78,47165,21.25,74216.0,5.71,-18.45,-17.03,0,*72
1500844065.0,47166,21.25,74218.5,5.71,-18.83,-17.45,0,*79
1500844066.22,47167,21.25,74220.3,5.71,-18.99,-17.59,0,*7E
1500844067.44,47168,21.25,74220.5,5.71,-18.99,-17.59,0,*71
1500844068.66,47169,21.25,74220.5,5.71,-18.79,-17.25,0,*75
1500844069.9,47170,21.25,74222.8,5.69,-18.35,-16.89,0,*7B
1500844071.14,47171,21.25,74222.0,5.69,-18.45,-17.11,0,*7D
1500844072.41,47172,21.25,74220.5,5.69,-18.59,-17.17,0,*75
1500844073.65,47173,21.25,74222.8,5.69,-18.49,-17.11,0,*73
1500844074.87,47174,21.25,74220.8,5.71,-18.65,-17.17,0,*75
1500844076.09,47175,21.25,74224.5,5.71,-18.79,-17.41,0,*7A
1500844077.33,47176,21.25,74222.0,5.73,-18.93,-17.49,0,*77
1500844078.53,47177,21.25,74222.3,5.71,-19.13,-17.69,0,*7F
1500844079.75,47178,21.25,74226.3,5.71,-18.83,-17.45,0,*76
1500844080.94,47179,21.25,74228.8,5.67,-18.79,-17.31,0,*76
1500844082.19,47180,21.25,74226.5,5.69,-18.49,-17.11,0,*7F
1500844083.4,47181,21.25,74224.3,5.69,-18.65,-17.31,0,*72
1500844084.62,47182,21.25,74222.0,5.71,-18.31,-16.79,0,*74
1500844085.84,47183,21.25,74222.8,5.71,-18.65,-17.17,0,*7D
1500844087.11,47184,21.25,74224.0,5.73,-18.55,-17.11,0,*7D
1500844088.35,47185,21.25,74226.3,5.69,-18.45,-17.03,0,*75
1500844089.6,47186,21.25,74226.3,5.69,-18.31,-16.79,0,*79
1500844090.8,47187,21.25,74218.8,5.71,-18.21,-16.83,0,*75
1500844092.02,47188,21.25,74216.8,5.71,-18.31,-16.83,0,*7B
1500844093.21,47189,21.25,74216.8,5.71,-18.41,-16.83,0,*7D
1500844094.4,47190,21.25,74218.3,5.71,-18.65,-17.31,0,*7B
1500844095.59,47191,21.25,74218.5,5.71,-18.69,-17.31,0,*76
1500844096.84,47192,21.25,74224.0,5.71,-18.59,-17.11,0,*74
1500844098.08,47193,21.25,74220.8,5.73,-18.31,-16.93,0,*72
1500844099.27,47194,21.25,74220.0,5.71,-18.45,-16.97,0,*70
1500844100.5,47195,21.25,74216.0,5.75,-18.31,-16.83,0,*73